[[{"header":{"parameterUnit":"m.s-1","parameterCategory":1,"la1":30.2991,"la2":30.254,"lo1":-89.0895,"lo2":-89.0444,"dy":0.0017,"dx":0.0017,"nx":28,"ny":28,"refTime":"2024-05-16T03:00:00:Z","depth":0,"parameterNumber":2,"parameterNumberName":"U-component_of_WINDS"},"data":[0,0,0,0,0,0,0,0,0,0,0,0,0,0,0,0,0,0,0,0,0,0,0,0,0,0,0,0,0,0,0,0,0,0,0,0,0,0,0,0,0,0,0,0,0,0,0,0,0,0,0,0,0,0,0,0,0,0,-1.7524,-1.7524,0,-1.7534,-1.7534,-1.7534,-1.7481,-1.748,-1.7478,-1.7477,-1.7491,-1.7493,-1.7495,0,0,0,0,0,0,0,0,0,0,0,0,0,-1.7463,-1.7465,-1.7524,-1.7524,-1.7524,-1.7534,-1.7534,-1.7534,-1.7481,-1.748,-1.7478,-1.7476,-1.7491,-1.7493,-1.7495,0,0,0,0,0,0,0,0,0,0,0,0,0,-1.7483,-1.7465,-1.7524,-1.7499,-1.7497,-1.7534,-1.7534,-1.7534,-1.7482,-1.7479,-1.7477,-1.7475,-1.749,-1.7493,-1.7495,-1.7559,0,0,-1.7504,-1.7505,0,0,0,0,0,0,0,0,-1.7482,-1.7486,-1.7502,-1.7501,-1.7498,-1.7504,-1.7518,-1.7543,-1.7482,-1.7488,-1.7477,-1.7474,-1.7498,-1.75,-1.7507,-1.7559,-1.756,-1.7504,-1.7506,-1.7507,-1.7508,0,0,0,0,0,0,0,-1.7481,-1.7485,-1.7528,-1.7503,-1.75,-1.7489,-1.7489,-1.7523,-1.7506,-1.7487,-1.7483,-1.7485,-1.7496,-1.7504,-1.7507,-1.756,-1.7504,-1.7506,-1.7508,-1.7509,-1.7666,-1.7668,0,0,0,0,0,0,-1.7482,-1.7484,-1.7528,-1.7528,-1.7484,-1.7492,-1.7492,-1.7505,-1.7505,-1.7503,-1.7487,-1.7482,-1.7501,-1.7504,-1.7507,-1.7581,-1.7507,-1.7509,-1.7511,-1.7664,-1.7667,-1.7669,0,0,0,0,0,0,-1.7481,-1.7487,-1.7527,-1.7505,-1.7509,-1.7495,-1.751,-1.7506,-1.7514,-1.7505,-1.7502,-1.7498,-1.7499,-1.7503,-1.7546,-1.7581,-1.7511,-1.7513,-1.7661,-1.7665,-1.7668,-1.773,0,0,0,0,0,0,-1.748,-1.7487,-1.7509,-1.7506,-1.7511,-1.7565,-1.7512,-1.7508,-1.7518,-1.7512,-1.7514,-1.7513,-1.7497,-1.7542,-1.7549,-1.7584,-1.7515,-1.7657,-1.7662,-1.7667,-1.7725,-1.7736,-1.7745,0,0,0,0,0,-1.7478,-1.7527,-1.7511,-1.7516,-1.7539,-1.7567,-1.757,-1.755,-1.7521,-1.7545,-1.7539,-1.7513,-1.7576,-1.7547,-1.7554,-1.759,-1.7655,-1.7661,-1.7666,-1.7721,-1.7734,-1.7745,0,0,0,0,0,0,-1.7537,-1.7526,-1.7508,-1.7558,-1.7563,-1.7558,-1.7587,-1.7564,-1.758,-1.7574,-1.755,-1.7551,-1.7598,-1.7599,-1.7566,-1.7652,-1.7611,-1.7618,-1.765,-1.7662,-1.7672,-1.7671,-1.7518,0,0,0,0,0,-1.7555,-1.7577,-1.7568,-1.7613,-1.7617,-1.7601,-1.7613,-1.7597,-1.7603,-1.7606,-1.7603,-1.7611,-1.7632,-1.7647,-1.7667,-1.7725,-1.7725,-1.7754,-1.7764,-1.7772,-1.7778,-1.781,-1.7823,-1.7688,-1.7688,-1.7688,0,0,-1.7594,-1.7591,-1.7607,-1.7625,-1.7627,-1.7652,-1.7604,-1.7632,-1.7651,-1.761,-1.765,-1.7649,-1.7656,-1.7707,-1.7729,-1.7709,-1.7816,-1.7779,-1.7786,-1.7788,-1.7817,-1.783,-1.7841,-1.7692,-1.7691,-1.7691,0,0,-1.7678,-1.7678,-1.7715,-1.7718,-1.7722,-1.7712,-1.7721,-1.7719,-1.7716,-1.7756,-1.7726,-1.7749,-1.7787,-1.7793,-1.7801,-1.7888,-1.7865,-1.7896,-1.7948,-1.7979,-1.7989,-1.7999,-1.803,-1.8042,-1.7902,-1.7903,-1.7903,0,-1.7726,-1.7761,-1.7737,-1.7768,-1.7777,-1.774,-1.7778,-1.7784,-1.7795,-1.7803,-1.7779,-1.7826,-1.7828,-1.788,-1.7902,-1.7909,-1.792,-1.7895,-1.7989,-1.7998,-1.8007,-1.8037,-1.8049,-1.7906,-1.7906,-1.7905,-1.7905,0,-1.782,-1.7845,-1.7875,-1.7885,-1.7898,-1.7933,-1.7916,-1.7932,-1.7915,-1.7908,-1.795,-1.7951,-1.797,-1.7982,-1.7966,-1.8032,-1.8019,-1.7993,-1.7951,-1.8024,-1.8052,-1.8063,-1.7911,-1.791,-1.7909,-1.7908,0,0,-1.7941,-1.7937,-1.7949,-1.7953,-1.7955,-1.7975,-1.8009,-1.8026,-1.8041,-1.805,-1.8078,-1.8112,-1.8087,-1.8097,-1.8082,-1.8109,-1.8179,-1.808,-1.808,-1.8098,-1.8253,-1.8273,-1.8286,-1.8164,-1.8166,-1.8167,-1.8252,0,-1.8023,-1.8078,-1.8058,-1.8116,-1.8139,-1.8104,-1.8134,-1.8139,-1.8134,-1.8154,-1.8149,-1.8172,-1.8138,-1.8144,-1.8169,-1.8165,-1.821,-1.8159,-1.8191,-1.8192,-1.819,-1.83,-1.8321,-1.8401,-1.8263,-1.8265,-1.8266,0,-1.8126,-1.8138,-1.8197,-1.8195,-1.8204,-1.8231,-1.8246,-1.8265,-1.8271,-1.8265,-1.8276,-1.8256,-1.8291,-1.8249,-1.8297,-1.8263,-1.8275,-1.8275,-1.8278,-1.828,-1.8234,-1.8306,-1.8426,-1.8439,-1.8283,-1.8281,-1.828,0,-1.8209,-1.824,-1.8279,-1.8284,-1.8283,-1.8302,-1.8303,-1.8307,-1.8319,-1.8333,-1.834,-1.8359,-1.8369,-1.8384,-1.837,-1.8341,-1.8421,-1.8378,-1.8418,-1.8418,-1.8436,-1.8435,-1.856,-1.8444,-1.8444,-1.8444,-1.8443,0,-1.8302,-1.834,-1.8316,-1.834,-1.8382,-1.836,-1.8402,-1.8399,-1.8403,-1.8427,-1.8399,-1.8423,-1.8403,-1.8426,-1.8415,-1.8457,-1.8462,-1.8459,-1.8456,-1.8462,-1.8462,-1.8469,-1.8464,-1.8447,-1.8446,-1.8445,-1.8445,0,-1.8402,-1.8387,-1.8427,-1.8423,-1.8423,-1.8454,-1.8451,-1.8474,-1.8466,-1.8498,-1.8504,-1.8493,-1.8518,-1.8505,-1.8532,-1.8525,-1.8579,-1.8568,-1.8577,-1.8574,-1.8615,-1.8611,-1.8749,-1.8767,-1.8639,-1.864,-1.8641,0,-1.8462,-1.849,-1.8488,-1.8502,-1.8504,-1.8527,-1.8538,-1.8518,-1.8532,-1.8541,-1.8564,-1.8586,-1.8603,-1.8646,-1.8641,-1.8661,-1.8651,-1.8698,-1.8654,-1.8659,-1.8653,-1.8651,-1.8654,-1.8707,-1.8709,-1.871,-1.8711,0,-1.8572,-1.8563,-1.858,-1.8596,-1.861,-1.8621,-1.863,-1.8644,-1.8624,-1.8641,-1.8665,-1.8679,-1.8705,-1.8729,-1.8746,-1.8749,-1.8728,-1.8725,-1.8735,-1.8741,-1.8745,-1.8744,-1.8601,-1.8722,-1.872,-1.872,-1.8719,-1.8719,-1.8654,-1.8678,-1.868,-1.87,-1.8705,-1.8714,-1.8736,-1.873,-1.875,-1.8769,-1.8756,-1.8786,-1.8792,-1.8814,-1.8819,-1.8843,-1.8825,-1.884,-1.8844,-1.8848,-1.8854,-1.8741,-1.8847,-1.8846,-1.8846,-1.8846,-1.8845,0,-1.8763,-1.8763,-1.8781,-1.8794,-1.8811,-1.8787,-1.8796,-1.8812,-1.8838,-1.8845,-1.8862,-1.8891,-1.8913,-1.891,-1.8931,-1.8951,-1.8942,-1.8957,-1.8956,-1.8957,-1.8869,-1.8858,-1.8965,-1.8965,-1.8965,-1.8964,-1.8964,-1.8964,-1.8821,-1.886,-1.8852,-1.8893,-1.8892,-1.8919,-1.8927,-1.8936,-1.8941,-1.8974,-1.8992,-1.899,-1.8993,-1.9014,-1.9035,-1.9033,-1.9043,-1.9062,-1.9057,-1.8975,-1.8963,-1.8952,-1.8941,-1.9064,-1.9064,-1.9144,-1.9144,-1.9145]},{"header":{"parameterUnit":"m.s-1","parameterCategory":1,"la1":30.2991,"la2":30.254,"lo1":-89.0895,"lo2":-89.0444,"dy":0.0017,"dx":0.0017,"nx":28,"ny":28,"refTime":"2024-05-16T03:00:00:Z","depth":0,"parameterNumber":3,"parameterNumberName":"V-component_of_WINDS"},"data":[0,0,0,0,0,0,0,0,0,0,0,0,0,0,0,0,0,0,0,0,0,0,0,0,0,0,0,0,0,0,0,0,0,0,0,0,0,0,0,0,0,0,0,0,0,0,0,0,0,0,0,0,0,0,0,0,0,0,3.3716,3.3716,0,3.3733,3.3734,3.3734,3.3705,3.3704,3.3703,3.3702,3.3719,3.372,3.3721,0,0,0,0,0,0,0,0,0,0,0,0,0,3.3656,3.3658,3.3716,3.3716,3.3716,3.3733,3.3734,3.3734,3.3705,3.3704,3.3703,3.3702,3.3718,3.372,3.3721,0,0,0,0,0,0,0,0,0,0,0,0,0,3.3679,3.3658,3.3716,3.3704,3.3703,3.3733,3.3734,3.3734,3.3706,3.3704,3.3703,3.3701,3.3718,3.372,3.3722,3.3763,0,0,3.3728,3.3728,0,0,0,0,0,0,0,0,3.3678,3.3681,3.3706,3.3705,3.3704,3.3716,3.3718,3.3744,3.3706,3.3705,3.3702,3.3701,3.3719,3.372,3.3727,3.3764,3.3764,3.3728,3.3729,3.373,3.373,0,0,0,0,0,0,0,3.3676,3.368,3.3723,3.3706,3.3705,3.3698,3.3699,3.3723,3.372,3.3705,3.3703,3.3705,3.3718,3.3725,3.3727,3.3765,3.3728,3.373,3.3731,3.3732,3.3836,3.3838,0,0,0,0,0,0,3.3676,3.3679,3.3722,3.3723,3.3687,3.37,3.3702,3.3713,3.3719,3.3719,3.3707,3.3704,3.3722,3.3725,3.3728,3.3777,3.373,3.3732,3.3733,3.3835,3.3837,3.3839,0,0,0,0,0,0,3.3675,3.368,3.3721,3.3701,3.3705,3.3702,3.3716,3.3715,3.3722,3.3721,3.372,3.3715,3.3721,3.3725,3.3755,3.3777,3.3733,3.3734,3.3833,3.3835,3.3838,3.3875,0,0,0,0,0,0,3.3673,3.368,3.3696,3.3701,3.3706,3.3749,3.3717,3.3716,3.3725,3.3722,3.3728,3.3727,3.372,3.3752,3.3757,3.3779,3.3736,3.3831,3.3834,3.3837,3.3872,3.3878,3.3884,0,0,0,0,0,3.3671,3.3705,3.3697,3.3702,3.3727,3.375,3.3753,3.3745,3.3727,3.3743,3.3743,3.3727,3.3774,3.3755,3.376,3.3783,3.383,3.3833,3.3837,3.3869,3.3877,3.3884,0,0,0,0,0,0,3.3702,3.3706,3.3697,3.3734,3.3742,3.3745,3.3765,3.3754,3.3766,3.3763,3.3751,3.3753,3.3785,3.3787,3.3766,3.3824,3.3799,3.3803,3.3821,3.3829,3.3835,3.3834,3.3738,0,0,0,0,0,3.3714,3.3733,3.3735,3.3767,3.3772,3.3768,3.3778,3.3771,3.3779,3.3782,3.3783,3.3791,3.3807,3.3818,3.3833,3.3872,3.3873,3.389,3.3897,3.3902,3.3906,3.3927,3.3935,3.385,3.385,3.385,0,0,3.3737,3.3741,3.3754,3.3773,3.3779,3.3799,3.3771,3.3793,3.3807,3.3785,3.3813,3.3815,3.3823,3.3857,3.3873,3.386,3.3929,3.3906,3.391,3.3912,3.3931,3.3939,3.3946,3.3853,3.3852,3.3852,0,0,3.3789,3.3795,3.3822,3.3829,3.3838,3.3835,3.3842,3.3847,3.3847,3.3876,3.386,3.3876,3.3904,3.3911,3.3918,3.3973,3.396,3.3978,3.401,3.4031,3.4038,3.4043,3.4063,3.4071,3.3983,3.3983,3.3983,0,3.3817,3.3847,3.3838,3.3861,3.387,3.3852,3.3879,3.3886,3.3899,3.3905,3.3891,3.3927,3.393,3.3967,3.398,3.3986,3.3993,3.3978,3.4037,3.4043,3.4049,3.4067,3.4075,3.3985,3.3985,3.3984,3.3984,0,3.388,3.3901,3.3922,3.3937,3.3948,3.3973,3.3968,3.3981,3.3973,3.3971,3.4001,3.4005,3.402,3.4028,3.402,3.4063,3.4055,3.4039,3.4014,3.4059,3.4077,3.4084,3.3988,3.3987,3.3987,3.3986,0,0,3.3953,3.3962,3.397,3.3976,3.3985,3.4001,3.4025,3.4041,3.4052,3.4062,3.4082,3.4107,3.4093,3.41,3.4093,3.4111,3.4155,3.4093,3.4093,3.4105,3.4203,3.4215,3.4223,3.4146,3.4147,3.4149,3.4202,0,3.4005,3.4049,3.4041,3.4083,3.4102,3.4085,3.4106,3.4114,3.4113,3.4129,3.4128,3.4145,3.4125,3.413,3.4147,3.4146,3.4175,3.4142,3.4165,3.4166,3.4164,3.4233,3.4245,3.4296,3.4209,3.421,3.4211,0,3.4073,3.4086,3.413,3.4136,3.4143,3.4163,3.4177,3.4192,3.42,3.4199,3.4208,3.4197,3.4221,3.4195,3.4228,3.4207,3.4215,3.4216,3.4218,3.422,3.4191,3.4237,3.4312,3.4319,3.4222,3.4221,3.422,0,3.4121,3.415,3.418,3.4186,3.4194,3.4208,3.4212,3.4218,3.4228,3.424,3.4247,3.4261,3.4269,3.4281,3.4274,3.4256,3.4308,3.4282,3.4308,3.4308,3.4319,3.4319,3.4397,3.4325,3.4325,3.4325,3.4324,0,3.4181,3.4209,3.4202,3.4221,3.4251,3.4242,3.4272,3.4274,3.428,3.4298,3.4283,3.4301,3.4291,3.4307,3.4302,3.433,3.4334,3.4333,3.4332,3.4335,3.4335,3.434,3.4337,3.4327,3.4326,3.4326,3.4325,0,3.4241,3.4238,3.4269,3.4274,3.4276,3.4298,3.4302,3.4319,3.4318,3.4341,3.4346,3.4343,3.4362,3.4356,3.4376,3.4373,3.4409,3.4402,3.4406,3.4405,3.4431,3.4429,3.4516,3.4527,3.4447,3.4448,3.4448,0,3.4279,3.43,3.4308,3.4319,3.4325,3.4343,3.4353,3.4345,3.4357,3.4368,3.4384,3.4401,3.4415,3.4445,3.4444,3.446,3.4454,3.4483,3.4456,3.4459,3.4455,3.4454,3.4456,3.4489,3.449,3.449,3.4491,0,3.4348,3.4346,3.4362,3.4377,3.439,3.4402,3.4412,3.4422,3.4415,3.4429,3.4448,3.4458,3.4479,3.4497,3.4511,3.4514,3.4501,3.45,3.4506,3.451,3.4512,3.4511,3.4421,3.4498,3.4497,3.4497,3.4496,3.4496,3.4399,3.4417,3.4425,3.4443,3.445,3.446,3.4477,3.4477,3.4494,3.451,3.4504,3.4526,3.4534,3.4551,3.4556,3.4573,3.4562,3.4572,3.4574,3.4577,3.458,3.4509,3.4576,3.4575,3.4575,3.4575,3.4575,0,3.4467,3.4472,3.4489,3.4504,3.4518,3.4506,3.4516,3.4529,3.4549,3.4557,3.4571,3.4593,3.461,3.4611,3.4627,3.464,3.4635,3.4645,3.4644,3.4645,3.4589,3.4582,3.4649,3.4649,3.4649,3.4649,3.4649,3.4649,3.4504,3.4534,3.4533,3.4566,3.457,3.4592,3.4599,3.4608,3.4615,3.464,3.4654,3.4655,3.466,3.4677,3.4691,3.4691,3.4698,3.471,3.4708,3.4656,3.4649,3.4642,3.4635,3.4711,3.4711,3.4762,3.4762,3.4762]}]]